Time,TemperatureF,DewpointF,PressureIn,WindDirection,WindDirectionDegrees,WindSpeedMPH,WindSpeedGustMPH,Humidity,HourlyPrecipIn,Conditions,Clouds,dailyrainin,SoftwareType,DateUTC
2013-07-17 00:01:00,55.0,51.0,-100.00,SSE,156,1.0,-999.0,87,0.00,,,-99.99,,2013-07-17 07:01:00,
2013-07-17 00:11:00,55.0,51.0,-100.00,SSE,156,1.0,-999.0,87,0.00,,,-99.99,,2013-07-17 07:11:00,
2013-07-17 00:22:00,55.0,51.0,-100.00,SSE,156,1.0,-999.0,87,0.00,,,-99.99,,2013-07-17 07:22:00,
2013-07-17 00:30:00,55.0,51.0,-100.00,SSE,158,1.0,-999.0,87,0.00,,,-99.99,,2013-07-17 07:30:00,
2013-07-17 00:52:00,55.0,51.0,-100.00,SSE,158,1.0,-999.0,87,0.00,,,-99.99,,2013-07-17 07:52:00,
2013-07-17 01:01:00,55.0,51.0,-100.00,SSE,158,1.0,-999.0,87,0.00,,,-99.99,,2013-07-17 08:01:00,
2013-07-17 01:11:00,55.0,51.0,-100.00,SSE,158,1.0,-999.0,87,0.00,,,-99.99,,2013-07-17 08:11:00,
2013-07-17 01:22:00,55.0,51.0,-100.00,SSE,158,1.0,-999.0,87,0.00,,,-99.99,,2013-07-17 08:22:00,
2013-07-17 01:30:00,55.0,51.0,-100.00,SSE,160,1.0,-999.0,86,0.00,,,-99.99,,2013-07-17 08:30:00,
2013-07-17 01:53:00,55.0,51.0,-100.00,SSE,160,1.0,-999.0,86,0.00,,,-99.99,,2013-07-17 08:53:00,
2013-07-17 02:01:00,55.0,51.0,-100.00,SSE,160,1.0,-999.0,86,0.00,,,-99.99,,2013-07-17 09:01:00,
2013-07-17 02:12:00,55.0,51.0,-100.00,SSE,160,1.0,-999.0,86,0.00,,,-99.99,,2013-07-17 09:12:00,
2013-07-17 02:22:00,55.0,51.0,-100.00,SSE,160,1.0,-999.0,86,0.00,,,-99.99,,2013-07-17 09:22:00,
2013-07-17 02:30:00,55.0,51.0,-100.00,WNW,303,0.0,-999.0,87,0.00,,,-99.99,,2013-07-17 09:30:00,
2013-07-17 02:52:00,55.0,51.0,-100.00,WNW,303,0.0,-999.0,87,0.00,,,-99.99,,2013-07-17 09:52:00,
2013-07-17 03:01:00,55.0,51.0,-100.00,WNW,303,0.0,-999.0,87,0.00,,,-99.99,,2013-07-17 10:01:00,
2013-07-17 03:11:00,55.0,51.0,-100.00,WNW,303,0.0,-999.0,87,0.00,,,-99.99,,2013-07-17 10:11:00,
2013-07-17 03:22:00,55.0,51.0,-100.00,WNW,303,0.0,-999.0,87,0.00,,,-99.99,,2013-07-17 10:22:00,
2013-07-17 03:30:00,55.0,51.0,-100.00,South,184,1.0,-999.0,87,0.00,,,-99.99,,2013-07-17 10:30:00,
2013-07-17 03:52:00,55.0,51.0,-100.00,South,184,1.0,-999.0,87,0.00,,,-99.99,,2013-07-17 10:52:00,
2013-07-17 04:01:00,55.0,51.0,-100.00,South,184,1.0,-999.0,87,0.00,,,-99.99,,2013-07-17 11:01:00,
2013-07-17 04:11:00,55.0,51.0,-100.00,South,184,1.0,-999.0,87,0.00,,,-99.99,,2013-07-17 11:11:00,
2013-07-17 04:22:00,55.0,51.0,-100.00,South,184,1.0,-999.0,87,0.00,,,-99.99,,2013-07-17 11:22:00,
2013-07-17 04:30:00,54.0,51.0,-100.00,South,181,2.0,-999.0,88,0.00,,,-99.99,,2013-07-17 11:30:00,
2013-07-17 05:01:00,54.0,51.0,-100.00,South,181,2.0,-999.0,88,0.00,,,-99.99,,2013-07-17 12:01:00,
2013-07-17 05:12:00,54.0,51.0,-100.00,South,181,2.0,-999.0,88,0.00,,,-99.99,,2013-07-17 12:12:00,
2013-07-17 05:22:00,54.0,51.0,-100.00,South,181,2.0,-999.0,88,0.00,,,-99.99,,2013-07-17 12:22:00,
2013-07-17 05:30:00,54.0,51.0,-100.00,SSW,197,0.0,-999.0,89,0.00,,,-99.99,,2013-07-17 12:30:00,
2013-07-17 06:12:00,54.0,51.0,-100.00,SSW,197,0.0,-999.0,89,0.00,,,-99.99,,2013-07-17 13:12:00,
2013-07-17 06:22:00,54.0,51.0,-100.00,SSW,197,0.0,-999.0,89,0.00,,,-99.99,,2013-07-17 13:22:00,
2013-07-17 06:30:00,54.0,51.0,-100.00,SW,226,0.0,-999.0,89,0.00,,,-99.99,,2013-07-17 13:30:00,
2013-07-17 07:02:00,54.0,51.0,-100.00,SW,226,0.0,-999.0,89,0.00,,,-99.99,,2013-07-17 14:02:00,
2013-07-17 07:11:00,54.0,51.0,-100.00,SW,226,0.0,-999.0,89,0.00,,,-99.99,,2013-07-17 14:11:00,
2013-07-17 07:22:00,54.0,51.0,-100.00,SW,226,0.0,-999.0,89,0.00,,,-99.99,,2013-07-17 14:22:00,
2013-07-17 07:30:00,55.0,51.0,-100.00,SSW,198,1.0,-999.0,89,0.00,,,-99.99,,2013-07-17 14:30:00,
2013-07-17 08:01:00,55.0,51.0,-100.00,SSW,198,1.0,-999.0,89,0.00,,,-99.99,,2013-07-17 15:01:00,
2013-07-17 08:12:00,55.0,51.0,-100.00,SSW,198,1.0,-999.0,89,0.00,,,-99.99,,2013-07-17 15:12:00,
2013-07-17 08:21:00,55.0,51.0,-100.00,SSW,198,1.0,-999.0,89,0.00,,,-99.99,,2013-07-17 15:21:00,
2013-07-17 08:30:00,54.0,51.0,-100.00,NNE,18,2.0,-999.0,88,0.00,,,-99.99,,2013-07-17 15:30:00,
2013-07-17 08:52:00,54.0,51.0,-100.00,NNE,18,2.0,-999.0,88,0.00,,,-99.99,,2013-07-17 15:52:00,
2013-07-17 09:01:00,54.0,51.0,-100.00,NNE,18,2.0,-999.0,88,0.00,,,-99.99,,2013-07-17 16:01:00,
2013-07-17 09:11:00,54.0,51.0,-100.00,NNE,18,2.0,-999.0,88,0.00,,,-99.99,,2013-07-17 16:11:00,
2013-07-17 09:21:00,54.0,51.0,-100.00,NNE,18,2.0,-999.0,88,0.00,,,-99.99,,2013-07-17 16:21:00,
2013-07-17 09:30:00,56.0,52.0,-100.00,NNE,20,2.0,-999.0,87,0.00,,,-99.99,,2013-07-17 16:30:00,
2013-07-17 09:52:00,56.0,52.0,-100.00,NNE,20,2.0,-999.0,87,0.00,,,-99.99,,2013-07-17 16:52:00,
2013-07-17 10:01:00,56.0,52.0,-100.00,NNE,20,2.0,-999.0,87,0.00,,,-99.99,,2013-07-17 17:01:00,
2013-07-17 10:11:00,56.0,52.0,-100.00,NNE,20,2.0,-999.0,87,0.00,,,-99.99,,2013-07-17 17:11:00,
2013-07-17 10:21:00,56.0,52.0,-100.00,NNE,20,2.0,-999.0,87,0.00,,,-99.99,,2013-07-17 17:21:00,
2013-07-17 10:30:00,56.0,51.0,-100.00,NNE,19,3.0,-999.0,86,0.00,,,-99.99,,2013-07-17 17:30:00,
2013-07-17 10:52:00,56.0,51.0,-100.00,NNE,19,3.0,-999.0,86,0.00,,,-99.99,,2013-07-17 17:52:00,
2013-07-17 11:01:00,56.0,51.0,-100.00,NNE,19,3.0,-999.0,86,0.00,,,-99.99,,2013-07-17 18:01:00,
2013-07-17 11:11:00,56.0,51.0,-100.00,NNE,19,3.0,-999.0,86,0.00,,,-99.99,,2013-07-17 18:11:00,
2013-07-17 11:22:00,56.0,51.0,-100.00,NNE,19,3.0,-999.0,86,0.00,,,-99.99,,2013-07-17 18:22:00,
2013-07-17 11:30:00,57.0,51.0,-100.00,NNE,19,5.0,-999.0,80,0.00,,,-99.99,,2013-07-17 18:30:00,
2013-07-17 12:01:00,57.0,51.0,-100.00,NNE,19,5.0,-999.0,80,0.00,,,-99.99,,2013-07-17 19:01:00,
2013-07-17 12:11:00,57.0,51.0,-100.00,NNE,19,5.0,-999.0,80,0.00,,,-99.99,,2013-07-17 19:11:00,
2013-07-17 12:22:00,57.0,51.0,-100.00,NNE,19,5.0,-999.0,80,0.00,,,-99.99,,2013-07-17 19:22:00,
2013-07-17 12:30:00,57.0,51.0,-100.00,NNE,13,5.0,-999.0,80,0.00,,,-99.99,,2013-07-17 19:30:00,
2013-07-17 12:53:00,57.0,51.0,-100.00,NNE,13,5.0,-999.0,80,0.00,,,-99.99,,2013-07-17 19:53:00,
2013-07-17 13:01:00,57.0,51.0,-100.00,NNE,13,5.0,-999.0,80,0.00,,,-99.99,,2013-07-17 20:01:00,
2013-07-17 13:11:00,57.0,51.0,-100.00,NNE,13,5.0,-999.0,80,0.00,,,-99.99,,2013-07-17 20:11:00,
2013-07-17 13:22:00,57.0,51.0,-100.00,NNE,13,5.0,-999.0,80,0.00,,,-99.99,,2013-07-17 20:22:00,
2013-07-17 13:30:00,57.0,51.0,-100.00,NNE,19,6.0,-999.0,78,0.00,,,-99.99,,2013-07-17 20:30:00,
2013-07-17 13:52:00,57.0,51.0,-100.00,NNE,19,6.0,-999.0,78,0.00,,,-99.99,,2013-07-17 20:52:00,
2013-07-17 14:01:00,57.0,51.0,-100.00,NNE,19,6.0,-999.0,78,0.00,,,-99.99,,2013-07-17 21:01:00,
2013-07-17 14:12:00,57.0,51.0,-100.00,NNE,19,6.0,-999.0,78,0.00,,,-99.99,,2013-07-17 21:12:00,
2013-07-17 14:22:00,57.0,51.0,-100.00,NNE,19,6.0,-999.0,78,0.00,,,-99.99,,2013-07-17 21:22:00,
2013-07-17 16:01:00,59.0,51.0,-100.00,NNE,23,6.0,-999.0,74,0.00,,,-99.99,,2013-07-17 23:01:00,
2013-07-17 16:11:00,59.0,51.0,-100.00,NNE,23,6.0,-999.0,74,0.00,,,-99.99,,2013-07-17 23:11:00,
2013-07-17 16:30:00,59.0,51.0,-100.00,North,11,5.0,-999.0,74,0.00,,,-99.99,,2013-07-17 23:30:00,
2013-07-17 17:01:00,59.0,51.0,-100.00,North,11,5.0,-999.0,74,0.00,,,-99.99,,2013-07-18 00:01:00,
2013-07-17 17:11:00,59.0,51.0,-100.00,North,11,5.0,-999.0,74,0.00,,,-99.99,,2013-07-18 00:11:00,
2013-07-17 17:30:00,58.0,52.0,-100.00,North,6,5.0,-999.0,78,0.00,,,-99.99,,2013-07-18 00:30:00,
2013-07-17 18:01:00,58.0,52.0,-100.00,North,6,5.0,-999.0,78,0.00,,,-99.99,,2013-07-18 01:01:00,
2013-07-17 18:11:00,58.0,52.0,-100.00,North,6,5.0,-999.0,78,0.00,,,-99.99,,2013-07-18 01:11:00,
2013-07-17 18:22:00,58.0,52.0,-100.00,North,6,5.0,-999.0,78,0.00,,,-99.99,,2013-07-18 01:22:00,
2013-07-17 18:30:00,57.0,51.0,-100.00,North,4,4.0,-999.0,80,0.00,,,-99.99,,2013-07-18 01:30:00,
2013-07-17 18:53:00,57.0,51.0,-100.00,North,4,4.0,-999.0,80,0.00,,,-99.99,,2013-07-18 01:53:00,
2013-07-17 19:01:00,57.0,51.0,-100.00,North,4,4.0,-999.0,80,0.00,,,-99.99,,2013-07-18 02:01:00,
2013-07-17 19:11:00,57.0,51.0,-100.00,North,4,4.0,-999.0,80,0.00,,,-99.99,,2013-07-18 02:11:00,
2013-07-17 19:21:00,57.0,51.0,-100.00,North,4,4.0,-999.0,80,0.00,,,-99.99,,2013-07-18 02:21:00,
2013-07-17 19:30:00,56.0,51.0,-100.00,North,360,4.0,-999.0,83,0.00,,,-99.99,,2013-07-18 02:30:00,
2013-07-17 19:52:00,56.0,51.0,-100.00,North,360,4.0,-999.0,83,0.00,,,-99.99,,2013-07-18 02:52:00,
2013-07-17 20:01:00,56.0,51.0,-100.00,North,360,4.0,-999.0,83,0.00,,,-99.99,,2013-07-18 03:01:00,
2013-07-17 20:11:00,56.0,51.0,-100.00,North,360,4.0,-999.0,83,0.00,,,-99.99,,2013-07-18 03:11:00,
2013-07-17 20:22:00,56.0,51.0,-100.00,North,360,4.0,-999.0,83,0.00,,,-99.99,,2013-07-18 03:22:00,
2013-07-17 20:30:00,54.0,50.0,-100.00,North,4,4.0,-999.0,87,0.00,,,-99.99,,2013-07-18 03:30:00,
2013-07-17 20:52:00,54.0,50.0,-100.00,North,4,4.0,-999.0,87,0.00,,,-99.99,,2013-07-18 03:52:00,
2013-07-17 21:02:00,54.0,50.0,-100.00,North,4,4.0,-999.0,87,0.00,,,-99.99,,2013-07-18 04:02:00,
2013-07-17 21:12:00,54.0,50.0,-100.00,North,4,4.0,-999.0,87,0.00,,,-99.99,,2013-07-18 04:12:00,
2013-07-17 21:22:00,54.0,50.0,-100.00,North,4,4.0,-999.0,87,0.00,,,-99.99,,2013-07-18 04:22:00,
2013-07-17 21:30:00,53.0,50.0,-100.00,North,360,3.0,-999.0,90,0.00,,,-99.99,,2013-07-18 04:30:00,
2013-07-17 22:01:00,53.0,50.0,-100.00,North,360,3.0,-999.0,90,0.00,,,-99.99,,2013-07-18 05:01:00,
2013-07-17 22:11:00,53.0,50.0,-100.00,North,360,3.0,-999.0,90,0.00,,,-99.99,,2013-07-18 05:11:00,
2013-07-17 22:21:00,53.0,50.0,-100.00,North,360,3.0,-999.0,90,0.00,,,-99.99,,2013-07-18 05:21:00,
2013-07-17 22:30:00,54.0,50.0,-100.00,North,3,3.0,-999.0,89,0.00,,,-99.99,,2013-07-18 05:30:00,
2013-07-17 22:52:00,54.0,50.0,-100.00,North,3,3.0,-999.0,89,0.00,,,-99.99,,2013-07-18 05:52:00,
2013-07-17 23:01:00,54.0,50.0,-100.00,North,3,3.0,-999.0,89,0.00,,,-99.99,,2013-07-18 06:01:00,
2013-07-17 23:11:00,54.0,50.0,-100.00,North,3,3.0,-999.0,89,0.00,,,-99.99,,2013-07-18 06:11:00,
2013-07-17 23:22:00,54.0,50.0,-100.00,North,3,3.0,-999.0,89,0.00,,,-99.99,,2013-07-18 06:22:00,
2013-07-17 23:30:00,55.0,49.0,-100.00,North,354,4.0,-999.0,82,0.00,,,-99.99,,2013-07-18 06:30:00,